Weather History for KSGU - November, 2013

Change the Weather History Date:

Saturday, November 23, 2013

  Actual Average (KCDC) Record (KCDC)
Temperature  
Mean Temperature 42 °F 34 °F  
Max Temperature 44 °F 48 °F 64 °F (1995)
Min Temperature 41 °F 21 °F -3 °F (1994)
Degree Days  
Heating Degree Days 22 31  
Month to date heating degree days 598  
Since 1 July heating degree days 1217  
Cooling Degree Days 0 0  
Month to date cooling degree days 0  
Year to date cooling degree days 588  
Moisture  
Dew Point 36 °F    
Average Humidity 78    
Maximum Humidity 87    
Minimum Humidity 70    
Precipitation  
Precipitation 0.28 in 0.03 in 0.45 in (1951)
Month to date precipitation 0.74  
Year to date precipitation 10.28  
Sea Level Pressure  
Sea Level Pressure 30.11 in    
Wind  
Wind Speed 2 mph (West)    
Max Wind Speed 12 mph    
Max Gust Speed -    
Visibility 10 miles    
Events      
T = Trace of Precipitation, MM = Missing Value Source: NWS Daily Summary

Daily Weather History Graph

Daily Weather History Graph

Search for Another Location

Airport or City:

Trip Planner

Search our weather history database for the weather conditions in past years. The results will help you decide how hot, cold, wet, or windy it might be!

Date:

Astronomy

Nov. 23, 2013 Rise Set
Actual Time 7:21 AM MST 5:19 PM MST
Civil Twilight 6:53 AM MST 5:48 PM MST
Nautical Twilight 6:21 AM MST 6:19 PM MST
Astronomical Twilight 5:50 AM MST 6:50 PM MST
Moon 10:48 PM MST (11/23) 11:43 AM MST (11/23)
Length of Visible Light 10h 54m
Length of Day
9h 58m
Waning Gibbous, 69% of the Moon is Illuminated
Nov 23
Waning Gibbous
Nov 25
Last Quarter
Dec 2
New
Dec 9
First Quarter
Dec 17
Full

Hourly Weather History & Observations

Time (MST) Temp. Windchill Dew Point Humidity Pressure Visibility Wind Dir Wind Speed Gust Speed Precip Events Conditions
12:15 AM 41.0 °F - 35.6 °F 81% 30.09 in 8.0 mi Calm Calm - N/A   Mostly Cloudy
12:35 AM 41.0 °F 39.0 °F 35.6 °F 81% 30.08 in 5.0 mi North 3.5 mph - N/A   Partly Cloudy
12:55 AM 41.0 °F 38.0 °F 35.6 °F 81% 30.08 in 5.0 mi WNW 4.6 mph - N/A   Partly Cloudy
1:15 AM 41.0 °F - 33.8 °F 76% 30.07 in 10.0 mi Calm Calm - N/A   Scattered Clouds
1:35 AM 41.0 °F 39.0 °F 35.6 °F 81% 30.08 in 10.0 mi SW 3.5 mph - N/A   Mostly Cloudy
1:55 AM 41.0 °F - 35.6 °F 81% 30.08 in 10.0 mi Calm Calm - N/A   Mostly Cloudy
2:15 AM 42.8 °F - 35.6 °F 76% 30.07 in 10.0 mi Calm Calm - N/A   Mostly Cloudy
2:35 AM 41.0 °F 38.0 °F 35.6 °F 81% 30.07 in 10.0 mi North 4.6 mph - N/A   Mostly Cloudy
2:55 AM 41.0 °F - 35.6 °F 81% 30.08 in 10.0 mi Calm Calm - N/A   Overcast
3:15 AM 41.0 °F - 35.6 °F 81% 30.07 in 10.0 mi Calm Calm - N/A   Overcast
3:35 AM 41.0 °F - 35.6 °F 81% 30.07 in 10.0 mi Calm Calm - N/A   Mostly Cloudy
3:55 AM 42.8 °F - 35.6 °F 76% 30.07 in 10.0 mi Calm Calm - N/A   Mostly Cloudy
4:15 AM 42.8 °F 40.1 °F 35.6 °F 76% 30.06 in 10.0 mi SSW 4.6 mph - N/A   Partly Cloudy
4:35 AM 42.8 °F 41.1 °F 35.6 °F 76% 30.07 in 10.0 mi South 3.5 mph - N/A   Mostly Cloudy
4:55 AM 42.8 °F - 35.6 °F 76% 30.08 in 10.0 mi Calm Calm - N/A   Overcast
5:15 AM 42.8 °F 41.1 °F 33.8 °F 70% 30.08 in 10.0 mi NNE 3.5 mph - 0.01 in   Mostly Cloudy
5:35 AM 42.8 °F 38.6 °F 35.6 °F 76% 30.09 in 10.0 mi East 6.9 mph - 0.01 in   Mostly Cloudy
5:55 AM 42.8 °F 38.6 °F 35.6 °F 76% 30.10 in 9.0 mi East 6.9 mph - 0.03 in   Overcast
6:15 AM 42.8 °F - 35.6 °F 76% 30.11 in 7.0 mi Calm Calm - 0.04 in   Overcast
6:35 AM 41.0 °F - 35.6 °F 81% 30.12 in 4.0 mi Calm Calm - 0.12 in   Overcast
6:55 AM 42.8 °F 37.5 °F 35.6 °F 76% 30.13 in 7.0 mi NE 9.2 mph - 0.19 in   Overcast
7:15 AM 41.0 °F 36.4 °F 35.6 °F 81% 30.14 in 7.0 mi North 6.9 mph - 0.03 in   Overcast
7:35 AM 41.0 °F 36.4 °F 35.6 °F 81% 30.14 in 10.0 mi North 6.9 mph - 0.04 in   Overcast
7:55 AM 41.0 °F 35.8 °F 37.4 °F 87% 30.15 in 5.0 mi North 8.1 mph - 0.04 in   Overcast
8:15 AM 41.0 °F 38.0 °F 37.4 °F 87% 30.14 in 10.0 mi North 4.6 mph - 0.01 in   Mostly Cloudy
8:35 AM 41.0 °F - 37.4 °F 87% 30.14 in 10.0 mi Calm Calm - 0.01 in   Mostly Cloudy
8:55 AM 41.0 °F - 37.4 °F 87% 30.14 in 10.0 mi Calm Calm - 0.01 in   Mostly Cloudy
9:15 AM 41.0 °F - 35.6 °F 81% 30.12 in 10.0 mi Calm Calm - N/A   Mostly Cloudy
9:35 AM 41.0 °F 35.8 °F 35.6 °F 81% 30.14 in 10.0 mi SW 8.1 mph - N/A   Mostly Cloudy
9:55 AM 41.0 °F 34.3 °F 35.6 °F 81% 30.14 in 10.0 mi SW 11.5 mph - N/A   Overcast
10:15 AM 41.0 °F 34.7 °F 35.6 °F 81% 30.14 in 10.0 mi SSW 10.4 mph - N/A   Overcast
10:35 AM 41.0 °F 35.8 °F 35.6 °F 81% 30.14 in 10.0 mi SW 8.1 mph - N/A   Overcast
10:55 AM 42.8 °F 38.6 °F 37.4 °F 81% 30.14 in 10.0 mi SSW 6.9 mph - N/A   Overcast
11:15 AM 42.8 °F 40.1 °F 35.6 °F 76% 30.14 in 10.0 mi SW 4.6 mph - N/A   Overcast
11:35 AM 42.8 °F 39.3 °F 35.6 °F 76% 30.14 in 10.0 mi SSW 5.8 mph - N/A   Overcast
11:55 AM 44.6 °F 41.4 °F 35.6 °F 71% 30.13 in 10.0 mi East 5.8 mph - N/A   Overcast
12:15 PM 44.6 °F - 35.6 °F 71% 30.12 in 10.0 mi Calm Calm - 0.01 in   Overcast
12:35 PM 42.8 °F 41.1 °F 35.6 °F 76% 30.11 in 10.0 mi NNW 3.5 mph - 0.01 in   Overcast
12:55 PM 42.8 °F 40.1 °F 37.4 °F 81% 30.11 in 10.0 mi North 4.6 mph - 0.01 in   Mostly Cloudy
1:15 PM 42.8 °F - 37.4 °F 81% 30.11 in 10.0 mi Calm Calm - N/A   Mostly Cloudy
1:35 PM 42.8 °F - 37.4 °F 81% 30.11 in 10.0 mi Calm Calm - N/A   Overcast
1:55 PM 42.8 °F - 37.4 °F 81% 30.10 in 10.0 mi Calm Calm - N/A   Overcast
2:15 PM 42.8 °F 41.1 °F 37.4 °F 81% 30.09 in 10.0 mi NW 3.5 mph - N/A   Mostly Cloudy
2:35 PM 42.8 °F 40.1 °F 37.4 °F 81% 30.10 in 10.0 mi SW 4.6 mph - N/A   Mostly Cloudy
2:55 PM 44.6 °F - 35.6 °F 71% 30.09 in 10.0 mi Calm Calm - N/A   Overcast
3:15 PM 44.6 °F - 37.4 °F 76% 30.09 in 10.0 mi Calm Calm - N/A   Overcast
3:35 PM 44.6 °F 43.1 °F 35.6 °F 71% 30.09 in 10.0 mi SSE 3.5 mph - N/A   Overcast
3:55 PM 44.6 °F - 35.6 °F 71% 30.10 in 10.0 mi Calm Calm - N/A   Overcast
4:15 PM 44.6 °F - 35.6 °F 71% 30.09 in 10.0 mi Calm Calm - N/A   Mostly Cloudy
4:35 PM 44.6 °F 41.4 °F 35.6 °F 71% 30.10 in 10.0 mi WSW 5.8 mph - N/A   Overcast
4:55 PM 44.6 °F - 35.6 °F 71% 30.10 in 10.0 mi Calm Calm - N/A   Overcast
5:15 PM 44.6 °F 43.1 °F 35.6 °F 71% 30.10 in 10.0 mi SSW 3.5 mph - N/A   Mostly Cloudy
5:35 PM 44.6 °F 42.2 °F 37.4 °F 76% 30.11 in 10.0 mi SSW 4.6 mph - N/A   Mostly Cloudy
5:55 PM 44.6 °F 41.4 °F 37.4 °F 76% 30.11 in 10.0 mi South 5.8 mph - N/A   Mostly Cloudy
6:15 PM 44.6 °F - 37.4 °F 76% 30.11 in 10.0 mi Calm Calm - N/A   Overcast
6:35 PM 44.6 °F 43.1 °F 35.6 °F 71% 30.12 in 10.0 mi SSE 3.5 mph - N/A   Mostly Cloudy
6:55 PM 42.8 °F - 37.4 °F 81% 30.12 in 10.0 mi Calm Calm - N/A   Mostly Cloudy
7:15 PM 42.8 °F - 37.4 °F 81% 30.12 in 10.0 mi Calm Calm - N/A   Mostly Cloudy
7:35 PM 44.6 °F - 37.4 °F 76% 30.12 in 10.0 mi Calm Calm - N/A   Overcast
7:55 PM 42.8 °F - 37.4 °F 81% 30.12 in 10.0 mi Calm Calm - N/A   Overcast
8:15 PM 42.8 °F - 37.4 °F 81% 30.13 in 10.0 mi Calm Calm - N/A   Overcast
8:35 PM 42.8 °F - 35.6 °F 76% 30.14 in 10.0 mi Calm Calm - N/A   Overcast
8:55 PM 42.8 °F - 35.6 °F 76% 30.14 in 10.0 mi Calm Calm - N/A   Overcast
9:15 PM 42.8 °F - 35.6 °F 76% 30.15 in 10.0 mi Calm Calm - N/A   Overcast
9:35 PM 42.8 °F - 35.6 °F 76% 30.15 in 10.0 mi Calm Calm - N/A   Overcast
9:55 PM 42.8 °F - 37.4 °F 81% 30.15 in 10.0 mi Calm Calm - N/A   Overcast
10:15 PM 42.8 °F - 37.4 °F 81% 30.15 in 10.0 mi Calm Calm - N/A   Mostly Cloudy
10:35 PM 42.8 °F - 37.4 °F 81% 30.16 in 10.0 mi Calm Calm - N/A   Mostly Cloudy
10:55 PM 42.8 °F 41.1 °F 37.4 °F 81% 30.16 in 10.0 mi NNE 3.5 mph - N/A   Mostly Cloudy
11:15 PM 42.8 °F 41.1 °F 35.6 °F 76% 30.16 in 10.0 mi NNE 3.5 mph - N/A   Overcast
11:35 PM 42.8 °F 41.1 °F 35.6 °F 76% 30.16 in 10.0 mi NE 3.5 mph - N/A   Overcast
11:55 PM 42.8 °F - 35.6 °F 76% 30.16 in 10.0 mi Calm Calm - N/A   Overcast